Oscar 11 - Orbit

View from above orbital plane
View from above orbital plane
View from above satellite
View from above satellite

Ground track
Ground track

The orbit data is extracted from the following two-line orbital elements,

1 14781U 84021B   13144.18872128  .00000851  00000-0  11685-3 0  1873
2 14781 097.9045 205.8418 0008704 016.2596 343.8894 14.80885167570383
Epoch (UTC): 24 May 2013 04:31:45
Eccentricity: 0.0008704
inclination: 97.9045°
perigee height: 620 km
apogee height: 632 km
right ascension of ascending node: 205.8418°
argument of perigee: 16.2596°
revolutions per day: 14.80885167
mean anomaly at epoch: 343.8894°
orbit number at epoch: 57038

The dashed part of the orbit path shows where the satellite is in the earth's shadow,  

Developed and maintained by Chris Peat, Heavens-Above GmbH. Please read the updated FAQ before sending e-mail. Imprint. DLR